Time,TemperatureF,DewpointF,PressureIn,WindDirection,WindDirectionDegrees,WindSpeedMPH,WindSpeedGustMPH,Humidity,HourlyPrecipIn,Conditions,Clouds,dailyrainin,SoftwareType,DateUTC
2013-01-18 00:04:00,31.2,9.7,29.86,SE,135,13.1,13.1,40,0.00,,,0.00,WUHU216HW,2013-01-18 07:04:00,
2013-01-18 00:09:00,30.9,9.4,29.87,ESE,113,12.7,13.1,40,0.00,,,0.00,WUHU216HW,2013-01-18 07:09:00,
2013-01-18 00:14:00,30.7,9.2,29.87,ESE,113,11.1,13.1,40,0.00,,,0.00,WUHU216HW,2013-01-18 07:14:00,
2013-01-18 00:19:00,30.7,9.7,29.87,East,90,8.2,14.0,41,0.00,,,0.00,WUHU216HW,2013-01-18 07:19:00,
2013-01-18 00:24:00,30.5,9.6,29.87,SE,135,8.9,14.0,41,0.00,,,0.00,WUHU216HW,2013-01-18 07:24:00,
2013-01-18 00:29:00,30.3,9.4,29.86,SE,135,14.3,14.3,41,0.00,,,0.00,WUHU216HW,2013-01-18 07:29:00,
2013-01-18 00:34:00,30.3,9.4,29.86,SE,135,19.2,19.2,41,0.00,,,0.00,WUHU216HW,2013-01-18 07:34:00,
2013-01-18 00:39:00,30.5,9.6,29.85,ESE,113,12.9,23.4,41,0.00,,,0.00,WUHU216HW,2013-01-18 07:39:00,
2013-01-18 00:44:00,30.5,9.6,29.86,SE,135,14.5,23.4,41,0.00,,,0.00,WUHU216HW,2013-01-18 07:44:00,
2013-01-18 00:49:00,30.5,9.6,29.86,SE,135,12.7,19.4,41,0.00,,,0.00,WUHU216HW,2013-01-18 07:49:00,
2013-01-18 00:54:00,30.5,9.6,29.86,SE,135,14.9,24.1,41,0.00,,,0.00,WUHU216HW,2013-01-18 07:54:00,
2013-01-18 00:59:00,30.7,9.7,29.86,SE,135,19.9,25.0,41,0.00,,,0.00,WUHU216HW,2013-01-18 07:59:00,
2013-01-18 01:05:00,30.9,9.4,29.86,SE,135,17.0,25.2,40,0.00,,,0.00,WUHU216HW,2013-01-18 08:05:00,
2013-01-18 01:09:00,30.9,9.4,29.87,SE,135,22.3,28.4,40,0.00,,,0.00,WUHU216HW,2013-01-18 08:09:00,
2013-01-18 01:14:00,30.7,9.2,29.86,ESE,113,9.6,28.4,40,0.00,,,0.00,WUHU216HW,2013-01-18 08:14:00,
2013-01-18 01:20:00,30.7,9.2,29.87,ESE,113,21.4,30.1,40,0.00,,,0.00,WUHU216HW,2013-01-18 08:20:00,
2013-01-18 01:25:00,30.7,9.2,29.86,SE,135,35.1,35.1,40,0.00,,,0.00,WUHU216HW,2013-01-18 08:25:00,
2013-01-18 01:30:00,30.9,9.4,29.86,ESE,113,14.5,35.1,40,0.00,,,0.00,WUHU216HW,2013-01-18 08:30:00,
2013-01-18 01:35:00,31.1,8.9,29.86,SE,135,21.6,31.0,39,0.00,,,0.00,WUHU216HW,2013-01-18 08:35:00,
2013-01-18 01:40:00,31.1,8.9,29.86,SW,225,21.2,24.6,39,0.00,,,0.00,WUHU216HW,2013-01-18 08:40:00,
2013-01-18 01:45:00,30.9,8.7,29.86,SE,135,16.5,21.2,39,0.00,,,0.00,WUHU216HW,2013-01-18 08:45:00,
2013-01-18 01:50:00,30.7,9.1,29.86,ESE,113,15.6,23.0,40,0.00,,,0.00,WUHU216HW,2013-01-18 08:50:00,
2013-01-18 01:55:00,30.3,8.9,29.86,ESE,113,9.8,23.0,40,0.00,,,0.00,WUHU216HW,2013-01-18 08:55:00,
2013-01-18 02:00:00,30.0,8.6,29.86,East,90,10.5,15.6,40,0.00,,,0.00,WUHU216HW,2013-01-18 09:00:00,
2013-01-18 02:05:00,30.0,8.6,29.86,SE,135,17.0,33.1,40,0.00,,,0.00,WUHU216HW,2013-01-18 09:05:00,
2013-01-18 02:10:00,30.0,8.6,29.86,ESE,113,21.0,33.1,40,0.00,,,0.00,WUHU216HW,2013-01-18 09:10:00,
2013-01-18 02:15:00,30.0,8.6,29.86,SE,135,21.4,25.5,40,0.00,,,0.00,WUHU216HW,2013-01-18 09:15:00,
2013-01-18 02:20:00,30.0,8.6,29.85,SE,135,23.9,28.4,40,0.00,,,0.00,WUHU216HW,2013-01-18 09:20:00,
2013-01-18 02:25:00,30.0,8.6,29.85,SE,135,19.4,28.4,40,0.00,,,0.00,WUHU216HW,2013-01-18 09:25:00,
2013-01-18 02:30:00,30.0,8.6,29.85,SE,135,19.2,24.6,40,0.00,,,0.00,WUHU216HW,2013-01-18 09:30:00,
2013-01-18 02:35:00,30.0,8.6,29.85,WSW,248,21.9,23.0,40,0.00,,,0.00,WUHU216HW,2013-01-18 09:35:00,
2013-01-18 02:40:00,30.0,8.6,29.85,SE,135,14.9,21.9,40,0.00,,,0.00,WUHU216HW,2013-01-18 09:40:00,
2013-01-18 02:45:00,30.0,8.6,29.84,SW,225,27.7,27.7,40,0.00,,,0.00,WUHU216HW,2013-01-18 09:45:00,
2013-01-18 02:50:00,30.0,8.6,29.84,SE,135,20.3,27.7,40,0.00,,,0.00,WUHU216HW,2013-01-18 09:50:00,
2013-01-18 02:55:00,30.3,8.9,29.84,SE,135,15.6,27.0,40,0.00,,,0.00,WUHU216HW,2013-01-18 09:55:00,
2013-01-18 03:00:00,30.5,9.1,29.84,SE,135,16.5,21.2,40,0.00,,,0.00,WUHU216HW,2013-01-18 10:00:00,
2013-01-18 03:06:00,30.5,8.4,29.84,SE,135,19.4,22.1,39,0.00,,,0.00,WUHU216HW,2013-01-18 10:06:00,
2013-01-18 03:11:00,30.3,8.3,29.83,SE,135,15.8,29.5,39,0.00,,,0.00,WUHU216HW,2013-01-18 10:11:00,
2013-01-18 03:16:00,30.3,8.3,29.83,ESE,113,18.5,29.5,39,0.00,,,0.00,WUHU216HW,2013-01-18 10:16:00,
2013-01-18 03:21:00,30.2,8.1,29.83,SE,135,18.7,24.8,39,0.00,,,0.00,WUHU216HW,2013-01-18 10:21:00,
2013-01-18 03:26:00,30.2,7.9,29.82,SE,135,33.5,33.5,39,0.00,,,0.00,WUHU216HW,2013-01-18 10:26:00,
2013-01-18 03:31:00,30.2,8.1,29.82,SW,225,21.9,33.5,39,0.00,,,0.00,WUHU216HW,2013-01-18 10:31:00,
2013-01-18 03:36:00,30.5,8.4,29.82,SE,135,20.1,27.5,39,0.00,,,0.00,WUHU216HW,2013-01-18 10:36:00,
2013-01-18 03:41:00,30.9,8.1,29.82,SE,135,27.9,32.2,38,0.00,,,0.00,WUHU216HW,2013-01-18 10:41:00,
2013-01-18 03:46:00,31.1,8.3,29.83,SE,135,20.3,32.2,38,0.00,,,0.00,WUHU216HW,2013-01-18 10:46:00,
2013-01-18 03:51:00,30.9,8.1,29.82,SE,135,21.6,29.9,38,0.00,,,0.00,WUHU216HW,2013-01-18 10:51:00,
2013-01-18 03:56:00,30.9,8.1,29.82,SE,135,27.9,36.4,38,0.00,,,0.00,WUHU216HW,2013-01-18 10:56:00,
2013-01-18 04:01:00,30.9,8.1,29.82,ESE,113,25.2,36.4,38,0.00,,,0.00,WUHU216HW,2013-01-18 11:01:00,
2013-01-18 04:06:00,30.9,8.1,29.82,SE,135,22.1,25.2,38,0.00,,,0.00,WUHU216HW,2013-01-18 11:06:00,
2013-01-18 04:11:00,31.1,8.3,29.82,ESE,113,15.6,24.1,38,0.00,,,0.00,WUHU216HW,2013-01-18 11:11:00,
2013-01-18 04:16:00,30.9,8.1,29.82,SE,135,18.3,23.0,38,0.00,,,0.00,WUHU216HW,2013-01-18 11:16:00,
2013-01-18 04:21:00,30.9,8.1,29.82,East,90,15.4,23.0,38,0.00,,,0.00,WUHU216HW,2013-01-18 11:21:00,
2013-01-18 04:26:00,31.1,7.7,29.81,SSE,158,38.2,38.2,37,0.00,,,0.00,WUHU216HW,2013-01-18 11:26:00,
2013-01-18 04:31:00,31.2,7.8,29.81,SE,135,23.4,38.2,37,0.00,,,0.00,WUHU216HW,2013-01-18 11:31:00,
2013-01-18 04:36:00,31.4,8.0,29.82,ESE,113,13.6,31.7,37,0.00,,,0.00,WUHU216HW,2013-01-18 11:36:00,
2013-01-18 04:41:00,31.6,8.1,29.82,ESE,113,18.1,19.9,37,0.00,,,0.00,WUHU216HW,2013-01-18 11:41:00,
2013-01-18 04:47:00,31.8,8.3,29.83,SE,135,18.5,19.9,37,0.00,,,0.00,WUHU216HW,2013-01-18 11:47:00,
2013-01-18 04:52:00,31.8,7.7,29.82,WSW,248,19.6,19.6,36,0.00,,,0.00,WUHU216HW,2013-01-18 11:52:00,
2013-01-18 04:57:00,32.1,8.0,29.83,ESE,113,9.8,20.3,36,0.00,,,0.00,WUHU216HW,2013-01-18 11:57:00,
2013-01-18 05:02:00,32.1,8.0,29.83,ESE,113,14.7,20.3,36,0.00,,,0.00,WUHU216HW,2013-01-18 12:02:00,
2013-01-18 05:07:00,31.8,7.7,29.83,SE,135,18.3,18.3,36,0.00,,,0.00,WUHU216HW,2013-01-18 12:07:00,
2013-01-18 05:12:00,31.8,7.0,29.83,ESE,113,17.6,18.3,35,0.00,,,0.00,WUHU216HW,2013-01-18 12:12:00,
2013-01-18 05:17:00,31.8,7.7,29.82,SE,135,17.6,18.3,36,0.00,,,0.00,WUHU216HW,2013-01-18 12:17:00,
2013-01-18 05:22:00,31.6,7.5,29.82,SE,135,13.6,22.5,36,0.00,,,0.00,WUHU216HW,2013-01-18 12:22:00,
2013-01-18 05:27:00,31.6,7.5,29.81,SW,225,12.3,22.5,36,0.00,,,0.00,WUHU216HW,2013-01-18 12:27:00,
2013-01-18 05:33:00,31.6,7.5,29.81,SE,135,19.0,21.4,36,0.00,,,0.00,WUHU216HW,2013-01-18 12:33:00,
2013-01-18 05:38:00,31.8,7.0,29.81,SE,135,19.6,26.3,35,0.00,,,0.00,WUHU216HW,2013-01-18 12:38:00,
2013-01-18 05:43:00,31.6,6.9,29.81,SE,135,25.5,26.3,35,0.00,,,0.00,WUHU216HW,2013-01-18 12:43:00,
2013-01-18 05:48:00,31.6,6.9,29.80,WSW,248,26.8,26.8,35,0.00,,,0.00,WUHU216HW,2013-01-18 12:48:00,
2013-01-18 05:53:00,31.6,7.5,29.80,SE,135,28.8,28.8,36,0.00,,,0.00,WUHU216HW,2013-01-18 12:53:00,
2013-01-18 05:58:00,31.2,7.2,29.80,SW,225,29.0,29.0,36,0.00,,,0.00,WUHU216HW,2013-01-18 12:58:00,
2013-01-18 06:03:00,31.2,7.2,29.80,SE,135,17.2,29.0,36,0.00,,,0.00,WUHU216HW,2013-01-18 13:03:00,
2013-01-18 06:08:00,31.2,7.2,29.80,SE,135,21.9,21.9,36,0.00,,,0.00,WUHU216HW,2013-01-18 13:08:00,
2013-01-18 06:13:00,31.2,7.2,29.80,SE,135,24.1,26.1,35,0.00,,,0.00,WUHU216HW,2013-01-18 13:13:00,
2013-01-18 06:18:00,31.1,7.0,29.80,SE,135,12.9,26.8,36,0.00,,,0.00,WUHU216HW,2013-01-18 13:18:00,
2013-01-18 06:24:00,30.7,6.7,29.80,East,90,13.6,26.8,36,0.00,,,0.00,WUHU216HW,2013-01-18 13:24:00,
2013-01-18 06:29:00,30.5,6.5,29.80,ESE,113,20.5,22.1,36,0.00,,,0.00,WUHU216HW,2013-01-18 13:29:00,
2013-01-18 06:34:00,30.5,6.5,29.80,SE,135,18.1,22.1,36,0.00,,,0.00,WUHU216HW,2013-01-18 13:34:00,
2013-01-18 06:39:00,30.7,6.7,29.80,ESE,113,11.6,21.0,36,0.00,,,0.00,WUHU216HW,2013-01-18 13:39:00,
2013-01-18 06:44:00,30.9,6.9,29.80,ESE,113,13.4,19.0,36,0.00,,,0.00,WUHU216HW,2013-01-18 13:44:00,
2013-01-18 06:49:00,30.7,6.7,29.80,East,90,8.0,13.4,36,0.00,,,0.00,WUHU216HW,2013-01-18 13:49:00,
2013-01-18 06:54:00,30.3,6.4,29.80,ESE,113,6.2,13.8,36,0.00,,,0.00,WUHU216HW,2013-01-18 13:54:00,
2013-01-18 06:59:00,30.0,6.0,29.80,SE,135,20.3,20.3,36,0.00,,,0.00,WUHU216HW,2013-01-18 13:59:00,
2013-01-18 07:04:00,30.3,6.4,29.80,ESE,113,8.9,20.3,36,0.00,,,0.00,WUHU216HW,2013-01-18 14:04:00,
2013-01-18 07:09:00,30.3,6.4,29.80,ESE,113,11.1,12.0,36,0.00,,,0.00,WUHU216HW,2013-01-18 14:09:00,
2013-01-18 07:14:00,30.7,6.7,29.80,East,90,15.4,21.6,36,0.00,,,0.00,WUHU216HW,2013-01-18 14:14:00,
2013-01-18 07:19:00,30.9,6.9,29.80,SW,225,15.8,21.6,36,0.00,,,0.00,WUHU216HW,2013-01-18 14:19:00,
2013-01-18 07:25:00,30.9,6.9,29.80,SE,135,14.7,17.8,36,0.00,,,0.00,WUHU216HW,2013-01-18 14:25:00,
2013-01-18 07:30:00,30.9,6.2,29.80,SE,135,21.2,21.2,35,0.00,,,0.00,WUHU216HW,2013-01-18 14:30:00,
2013-01-18 07:35:00,31.2,6.6,29.80,ESE,113,8.9,21.2,35,0.00,,,0.00,WUHU216HW,2013-01-18 14:35:00,
2013-01-18 07:40:00,31.2,6.6,29.80,SE,135,22.8,25.2,35,0.00,,,0.00,WUHU216HW,2013-01-18 14:40:00,
2013-01-18 07:45:00,31.6,6.9,29.80,ESE,113,15.8,25.2,35,0.00,,,0.00,WUHU216HW,2013-01-18 14:45:00,
2013-01-18 07:50:00,31.8,6.4,29.80,SE,135,25.7,25.7,34,0.00,,,0.00,WUHU216HW,2013-01-18 14:50:00,
2013-01-18 07:55:00,32.1,6.7,29.80,ESE,113,21.0,25.7,34,0.00,,,0.00,WUHU216HW,2013-01-18 14:55:00,
2013-01-18 08:00:00,32.0,6.6,29.81,SE,135,26.6,26.6,34,0.00,,,0.00,WUHU216HW,2013-01-18 15:00:00,
2013-01-18 08:05:00,32.1,6.7,29.81,ESE,113,15.8,26.6,34,0.00,,,0.00,WUHU216HW,2013-01-18 15:05:00,
2013-01-18 08:10:00,32.3,6.9,29.81,SE,135,14.3,21.2,34,0.00,,,0.00,WUHU216HW,2013-01-18 15:10:00,
2013-01-18 08:15:00,32.7,6.6,29.82,SE,135,17.2,25.7,33,0.00,,,0.00,WUHU216HW,2013-01-18 15:15:00,
2013-01-18 08:20:00,32.9,6.8,29.82,SE,135,20.3,25.7,33,0.00,,,0.00,WUHU216HW,2013-01-18 15:20:00,
2013-01-18 08:25:00,33.4,7.2,29.81,SE,135,20.5,24.8,33,0.00,,,0.00,WUHU216HW,2013-01-18 15:25:00,
2013-01-18 08:30:00,33.6,7.4,29.82,ESE,113,12.5,24.8,33,0.00,,,0.00,WUHU216HW,2013-01-18 15:30:00,
2013-01-18 08:35:00,33.9,7.1,29.82,SE,135,20.5,20.5,32,0.00,,,0.00,WUHU216HW,2013-01-18 15:35:00,
2013-01-18 08:40:00,34.3,7.4,29.82,SW,225,24.1,24.1,32,0.00,,,0.00,WUHU216HW,2013-01-18 15:40:00,
2013-01-18 08:45:00,34.5,7.4,29.82,SE,135,23.4,24.1,31,0.00,,,0.00,WUHU216HW,2013-01-18 15:45:00,
2013-01-18 08:50:00,34.8,7.2,29.83,SE,135,22.1,25.2,31,0.00,,,0.00,WUHU216HW,2013-01-18 15:50:00,
2013-01-18 08:55:00,35.2,7.5,29.82,SE,135,18.5,25.2,31,0.00,,,0.00,WUHU216HW,2013-01-18 15:55:00,
2013-01-18 09:00:00,35.4,7.6,29.82,SE,135,20.5,20.5,31,0.00,,,0.00,WUHU216HW,2013-01-18 16:00:00,
2013-01-18 09:05:00,36.1,8.2,29.82,SE,135,21.4,21.4,31,0.00,,,0.00,WUHU216HW,2013-01-18 16:05:00,
2013-01-18 09:10:00,36.3,7.8,29.82,SE,135,21.2,21.4,30,0.00,,,0.00,WUHU216HW,2013-01-18 16:10:00,
2013-01-18 09:15:00,37.0,7.5,29.81,SW,225,26.1,29.3,29,0.00,,,0.00,WUHU216HW,2013-01-18 16:15:00,
2013-01-18 09:20:00,37.4,7.8,29.82,WSW,248,20.5,29.3,29,0.00,,,0.00,WUHU216HW,2013-01-18 16:20:00,
2013-01-18 09:25:00,37.5,8.0,29.82,SE,135,17.2,25.5,29,0.00,,,0.00,WUHU216HW,2013-01-18 16:25:00,
2013-01-18 09:31:00,37.7,8.2,29.82,SE,135,13.6,25.5,29,0.00,,,0.00,WUHU216HW,2013-01-18 16:31:00,
2013-01-18 09:36:00,38.3,8.6,29.82,WSW,248,20.8,20.8,29,0.00,,,0.00,WUHU216HW,2013-01-18 16:36:00,
2013-01-18 09:41:00,38.8,8.2,29.83,SE,135,16.1,24.6,28,0.00,,,0.00,WUHU216HW,2013-01-18 16:41:00,
2013-01-18 09:46:00,39.5,8.9,29.83,WSW,248,22.8,24.6,28,0.00,,,0.00,WUHU216HW,2013-01-18 16:46:00,
2013-01-18 09:51:00,39.9,8.3,29.82,SE,135,19.6,22.8,27,0.00,,,0.00,WUHU216HW,2013-01-18 16:51:00,
2013-01-18 09:56:00,40.2,8.6,29.82,SE,135,20.5,21.4,27,0.00,,,0.00,WUHU216HW,2013-01-18 16:56:00,
2013-01-18 10:01:00,40.6,8.9,29.82,SW,225,25.0,25.5,27,0.00,,,0.00,WUHU216HW,2013-01-18 17:01:00,
2013-01-18 10:06:00,40.4,7.9,29.81,WSW,248,27.7,27.7,26,0.00,,,0.00,WUHU216HW,2013-01-18 17:06:00,
2013-01-18 10:11:00,40.4,7.9,29.82,SW,225,31.3,31.3,26,0.00,,,0.00,WUHU216HW,2013-01-18 17:11:00,
2013-01-18 10:16:00,40.4,7.9,29.82,SE,135,20.1,31.3,26,0.00,,,0.00,WUHU216HW,2013-01-18 17:16:00,
2013-01-18 10:21:00,40.4,7.9,29.82,SE,135,18.5,27.0,26,0.00,,,0.00,WUHU216HW,2013-01-18 17:21:00,
2013-01-18 10:26:00,40.8,9.1,29.82,SW,225,21.4,25.5,27,0.00,,,0.00,WUHU216HW,2013-01-18 17:26:00,
2013-01-18 10:31:00,41.1,8.5,29.81,WSW,248,20.1,26.3,26,0.00,,,0.00,WUHU216HW,2013-01-18 17:31:00,
2013-01-18 10:36:00,41.3,8.7,29.81,SE,135,6.9,28.4,26,0.00,,,0.00,WUHU216HW,2013-01-18 17:36:00,
2013-01-18 10:41:00,41.5,8.8,29.81,ESE,113,19.0,28.4,26,0.00,,,0.00,WUHU216HW,2013-01-18 17:41:00,
2013-01-18 10:46:00,41.7,8.9,29.81,West,270,14.3,29.9,26,0.00,,,0.00,WUHU216HW,2013-01-18 17:46:00,
2013-01-18 10:51:00,42.0,9.2,29.80,West,270,20.1,29.9,26,0.00,,,0.00,WUHU216HW,2013-01-18 17:51:00,
2013-01-18 10:56:00,42.4,8.6,29.81,SE,135,20.8,23.0,25,0.00,,,0.00,WUHU216HW,2013-01-18 17:56:00,
2013-01-18 11:02:00,42.6,8.8,29.81,SE,135,18.7,20.8,25,0.00,,,0.00,WUHU216HW,2013-01-18 18:02:00,
2013-01-18 11:07:00,42.6,8.8,29.80,SW,225,21.2,28.1,25,0.00,,,0.00,WUHU216HW,2013-01-18 18:07:00,
2013-01-18 11:12:00,42.4,8.6,29.80,SE,135,18.3,28.1,25,0.00,,,0.00,WUHU216HW,2013-01-18 18:12:00,
2013-01-18 11:17:00,42.4,8.6,29.80,West,270,21.6,26.1,25,0.00,,,0.00,WUHU216HW,2013-01-18 18:17:00,
2013-01-18 11:22:00,42.6,8.8,29.80,SE,135,32.2,32.2,25,0.00,,,0.00,WUHU216HW,2013-01-18 18:22:00,
2013-01-18 11:27:00,42.9,9.1,29.79,SE,135,11.6,32.2,25,0.00,,,0.00,WUHU216HW,2013-01-18 18:27:00,
2013-01-18 11:32:00,43.3,9.4,29.79,SE,135,16.1,16.3,25,0.00,,,0.00,WUHU216HW,2013-01-18 18:32:00,
2013-01-18 11:37:00,43.5,9.6,29.79,West,270,11.4,16.3,25,0.00,,,0.00,WUHU216HW,2013-01-18 18:37:00,
2013-01-18 11:42:00,43.8,9.9,29.79,WSW,248,19.0,19.0,25,0.00,,,0.00,WUHU216HW,2013-01-18 18:42:00,
2013-01-18 11:47:00,44.2,9.3,29.78,SE,135,24.3,27.2,24,0.00,,,0.00,WUHU216HW,2013-01-18 18:47:00,
2013-01-18 11:52:00,44.4,9.5,29.78,ESE,113,16.1,27.2,24,0.00,,,0.00,WUHU216HW,2013-01-18 18:52:00,
2013-01-18 11:57:00,44.7,9.8,29.78,WNW,293,14.0,32.2,24,0.00,,,0.00,WUHU216HW,2013-01-18 18:57:00,
2013-01-18 12:02:00,44.9,9.9,29.78,SE,135,21.6,32.2,24,0.00,,,0.00,WUHU216HW,2013-01-18 19:02:00,
2013-01-18 12:07:00,44.9,9.9,29.78,SE,135,14.0,28.8,24,0.00,,,0.00,WUHU216HW,2013-01-18 19:07:00,
2013-01-18 12:12:00,45.1,10.1,29.77,SE,135,17.2,28.8,24,0.00,,,0.00,WUHU216HW,2013-01-18 19:12:00,
2013-01-18 12:17:00,45.3,10.2,29.77,West,270,20.8,21.9,24,0.00,,,0.00,WUHU216HW,2013-01-18 19:17:00,
2013-01-18 12:22:00,45.6,10.5,29.77,WSW,248,21.9,21.9,24,0.00,,,0.00,WUHU216HW,2013-01-18 19:22:00,
2013-01-18 12:27:00,46.0,10.8,29.77,WSW,248,26.1,26.1,24,0.00,,,0.00,WUHU216HW,2013-01-18 19:27:00,
2013-01-18 12:32:00,45.8,9.8,29.76,East,90,13.4,26.1,23,0.00,,,0.00,WUHU216HW,2013-01-18 19:32:00,
2013-01-18 12:38:00,46.0,10.8,29.76,East,90,11.1,22.1,24,0.00,,,0.00,WUHU216HW,2013-01-18 19:38:00,
2013-01-18 12:43:00,46.2,10.1,29.76,ESE,113,15.6,22.1,23,0.00,,,0.00,WUHU216HW,2013-01-18 19:43:00,
2013-01-18 12:48:00,46.2,10.1,29.76,West,270,9.6,15.6,23,0.00,,,0.00,WUHU216HW,2013-01-18 19:48:00,
2013-01-18 12:53:00,46.2,10.1,29.75,West,270,25.2,25.2,23,0.00,,,0.00,WUHU216HW,2013-01-18 19:53:00,
2013-01-18 12:58:00,46.0,9.9,29.75,WSW,248,21.2,25.2,23,0.00,,,0.00,WUHU216HW,2013-01-18 19:58:00,
2013-01-18 13:03:00,46.2,10.1,29.75,West,270,15.8,29.9,23,0.00,,,0.00,WUHU216HW,2013-01-18 20:03:00,
2013-01-18 13:08:00,46.5,10.4,29.75,ESE,113,22.1,29.9,23,0.00,,,0.00,WUHU216HW,2013-01-18 20:08:00,
2013-01-18 13:13:00,46.5,10.4,29.75,SE,135,28.6,31.5,23,0.00,,,0.00,WUHU216HW,2013-01-18 20:13:00,
2013-01-18 13:18:00,46.2,10.1,29.76,SE,135,15.2,38.2,23,0.00,,,0.00,WUHU216HW,2013-01-18 20:18:00,
2013-01-18 13:23:00,46.0,9.9,29.75,WSW,248,20.3,38.2,23,0.00,,,0.00,WUHU216HW,2013-01-18 20:23:00,
2013-01-18 13:28:00,46.2,10.1,29.75,WSW,248,23.9,32.6,23,0.00,,,0.00,WUHU216HW,2013-01-18 20:28:00,
2013-01-18 13:33:00,46.2,10.1,29.76,SE,135,13.4,32.6,23,0.00,,,0.00,WUHU216HW,2013-01-18 20:33:00,
2013-01-18 13:38:00,46.2,10.1,29.75,SW,225,21.2,27.2,23,0.00,,,0.00,WUHU216HW,2013-01-18 20:38:00,
2013-01-18 13:43:00,46.5,10.4,29.76,WSW,248,25.5,25.5,23,0.00,,,0.00,WUHU216HW,2013-01-18 20:43:00,
2013-01-18 13:48:00,46.5,10.4,29.76,SE,135,22.1,27.7,23,0.00,,,0.00,WUHU216HW,2013-01-18 20:48:00,
2013-01-18 13:53:00,46.5,10.4,29.76,WSW,248,14.9,29.7,23,0.00,,,0.00,WUHU216HW,2013-01-18 20:53:00,
2013-01-18 13:58:00,46.5,10.4,29.75,SW,225,21.2,29.7,23,0.00,,,0.00,WUHU216HW,2013-01-18 20:58:00,
2013-01-18 14:03:00,46.5,10.4,29.75,SE,135,15.8,29.9,23,0.00,,,0.00,WUHU216HW,2013-01-18 21:03:00,
2013-01-18 14:08:00,46.5,10.4,29.76,SE,135,29.3,29.9,23,0.00,,,0.00,WUHU216HW,2013-01-18 21:08:00,
2013-01-18 14:13:00,46.2,11.0,29.75,SW,225,20.5,29.3,24,0.00,,,0.00,WUHU216HW,2013-01-18 21:13:00,
2013-01-18 14:18:00,46.0,10.8,29.75,SW,225,29.0,29.0,24,0.00,,,0.00,WUHU216HW,2013-01-18 21:18:00,
2013-01-18 14:23:00,46.2,11.0,29.75,SW,225,25.5,34.4,24,0.00,,,0.00,WUHU216HW,2013-01-18 21:23:00,
2013-01-18 14:28:00,46.0,10.8,29.75,SW,225,20.3,34.4,24,0.00,,,0.00,WUHU216HW,2013-01-18 21:28:00,
2013-01-18 14:33:00,46.0,10.8,29.75,WSW,248,17.8,29.7,24,0.00,,,0.00,WUHU216HW,2013-01-18 21:33:00,
2013-01-18 14:38:00,46.2,11.0,29.74,SW,225,23.7,31.9,24,0.00,,,0.00,WUHU216HW,2013-01-18 21:38:00,
2013-01-18 14:43:00,46.0,10.8,29.75,WSW,248,28.1,31.9,24,0.00,,,0.00,WUHU216HW,2013-01-18 21:43:00,
2013-01-18 14:49:00,45.8,10.5,29.75,SE,135,22.5,29.3,24,0.00,,,0.00,WUHU216HW,2013-01-18 21:49:00,
2013-01-18 14:54:00,45.6,11.4,29.74,SE,135,20.3,27.2,25,0.00,,,0.00,WUHU216HW,2013-01-18 21:54:00,
2013-01-18 14:59:00,45.6,11.4,29.74,SW,225,31.9,31.9,25,0.00,,,0.00,WUHU216HW,2013-01-18 21:59:00,
2013-01-18 15:04:00,45.6,11.4,29.74,WSW,248,21.9,31.9,25,0.00,,,0.00,WUHU216HW,2013-01-18 22:04:00,
2013-01-18 15:09:00,45.6,11.4,29.74,WSW,248,21.6,29.0,25,0.00,,,0.00,WUHU216HW,2013-01-18 22:09:00,
2013-01-18 15:14:00,45.6,11.4,29.74,SW,225,16.5,28.8,25,0.00,,,0.00,WUHU216HW,2013-01-18 22:14:00,
2013-01-18 15:19:00,45.6,11.4,29.74,WSW,248,15.6,28.8,25,0.00,,,0.00,WUHU216HW,2013-01-18 22:19:00,
2013-01-18 15:24:00,45.6,11.4,29.74,WSW,248,20.3,26.6,25,0.00,,,0.00,WUHU216HW,2013-01-18 22:24:00,
2013-01-18 15:29:00,45.3,11.1,29.74,SE,135,20.3,26.6,25,0.00,,,0.00,WUHU216HW,2013-01-18 22:29:00,
2013-01-18 15:34:00,45.1,11.9,29.74,SW,225,23.2,26.8,26,0.00,,,0.00,WUHU216HW,2013-01-18 22:34:00,
2013-01-18 15:39:00,45.1,11.9,29.73,SW,225,18.7,26.3,26,0.00,,,0.00,WUHU216HW,2013-01-18 22:39:00,
2013-01-18 15:44:00,45.1,11.9,29.73,SW,225,36.9,36.9,26,0.00,,,0.00,WUHU216HW,2013-01-18 22:44:00,
2013-01-18 15:49:00,44.9,11.7,29.73,SW,225,24.1,36.9,26,0.00,,,0.00,WUHU216HW,2013-01-18 22:49:00,
2013-01-18 15:55:00,45.1,11.9,29.73,SW,225,25.0,29.7,26,0.00,,,0.00,WUHU216HW,2013-01-18 22:55:00,
2013-01-18 16:00:00,45.1,11.9,29.73,SW,225,22.1,29.7,26,0.00,,,0.00,WUHU216HW,2013-01-18 23:00:00,
2013-01-18 16:05:00,45.1,11.9,29.73,WSW,248,20.1,29.0,26,0.00,,,0.00,WUHU216HW,2013-01-18 23:05:00,
2013-01-18 16:10:00,44.7,11.6,29.73,SW,225,25.9,29.0,26,0.00,,,0.00,WUHU216HW,2013-01-18 23:10:00,
2013-01-18 16:15:00,44.4,12.2,29.73,WSW,248,24.1,27.7,27,0.00,,,0.00,WUHU216HW,2013-01-18 23:15:00,
2013-01-18 16:20:00,43.8,11.7,29.73,SW,225,19.4,24.1,27,0.00,,,0.00,WUHU216HW,2013-01-18 23:20:00,
2013-01-18 16:25:00,43.1,11.9,29.73,WSW,248,27.7,27.7,28,0.00,,,0.00,WUHU216HW,2013-01-18 23:25:00,
2013-01-18 16:30:00,42.9,11.8,29.73,West,270,15.4,27.7,28,0.00,,,0.00,WUHU216HW,2013-01-18 23:30:00,
2013-01-18 16:35:00,42.4,12.2,29.73,SW,225,23.0,25.7,29,0.00,,,0.00,WUHU216HW,2013-01-18 23:35:00,
2013-01-18 16:40:00,42.0,12.8,29.73,WSW,248,15.6,25.7,30,0.00,,,0.00,WUHU216HW,2013-01-18 23:40:00,
2013-01-18 16:45:00,41.7,12.5,29.73,WSW,248,14.7,25.0,30,0.00,,,0.00,WUHU216HW,2013-01-18 23:45:00,
2013-01-18 16:50:00,41.5,12.4,29.73,WSW,248,17.2,25.0,30,0.00,,,0.00,WUHU216HW,2013-01-18 23:50:00,
2013-01-18 16:55:00,41.1,12.8,29.73,SE,135,17.0,24.8,31,0.00,,,0.00,WUHU216HW,2013-01-18 23:55:00,
2013-01-18 17:00:00,40.8,12.5,29.73,WSW,248,20.5,24.8,31,0.00,,,0.00,WUHU216HW,2013-01-19 00:00:00,
2013-01-18 17:06:00,40.1,11.8,29.73,ESE,113,12.7,20.5,31,0.00,,,0.00,WUHU216HW,2013-01-19 00:06:00,
2013-01-18 17:11:00,39.5,12.0,29.73,SE,135,18.7,20.5,32,0.00,,,0.00,WUHU216HW,2013-01-19 00:11:00,
2013-01-18 17:16:00,39.3,11.8,29.73,WSW,248,18.1,18.7,32,0.00,,,0.00,WUHU216HW,2013-01-19 00:16:00,
2013-01-18 17:21:00,39.3,11.8,29.73,SE,135,13.8,18.7,32,0.00,,,0.00,WUHU216HW,2013-01-19 00:21:00,
2013-01-18 17:26:00,39.0,11.5,29.74,West,270,8.5,13.8,32,0.00,,,0.00,WUHU216HW,2013-01-19 00:26:00,
2013-01-18 17:31:00,39.0,12.1,29.74,SE,135,19.9,19.9,33,0.00,,,0.00,WUHU216HW,2013-01-19 00:31:00,
2013-01-18 17:36:00,39.0,12.1,29.74,ESE,113,9.3,19.9,33,0.00,,,0.00,WUHU216HW,2013-01-19 00:36:00,
2013-01-18 17:41:00,38.8,12.0,29.73,ESE,113,21.0,21.0,33,0.00,,,0.00,WUHU216HW,2013-01-19 00:41:00,
2013-01-18 17:46:00,38.8,12.0,29.73,SE,135,14.9,21.0,33,0.00,,,0.00,WUHU216HW,2013-01-19 00:46:00,
2013-01-18 17:51:00,38.8,12.0,29.74,SE,135,9.3,14.9,33,0.00,,,0.00,WUHU216HW,2013-01-19 00:51:00,
2013-01-18 17:56:00,38.4,11.6,29.74,SE,135,10.2,14.9,33,0.00,,,0.00,WUHU216HW,2013-01-19 00:56:00,
2013-01-18 18:02:00,38.3,12.1,29.74,SE,135,21.6,21.6,34,0.00,,,0.00,WUHU216HW,2013-01-19 01:02:00,
2013-01-18 18:07:00,38.3,12.1,29.74,ESE,113,13.8,21.6,34,0.00,,,0.00,WUHU216HW,2013-01-19 01:07:00,
2013-01-18 18:12:00,38.1,12.0,29.74,SE,135,18.3,21.6,34,0.00,,,0.00,WUHU216HW,2013-01-19 01:12:00,
2013-01-18 18:17:00,37.9,11.8,29.74,SE,135,17.6,18.3,34,0.00,,,0.00,WUHU216HW,2013-01-19 01:17:00,
2013-01-18 18:22:00,37.9,11.8,29.74,SW,225,17.0,17.6,34,0.00,,,0.00,WUHU216HW,2013-01-19 01:22:00,
2013-01-18 18:27:00,37.9,11.8,29.74,West,270,17.2,17.6,34,0.00,,,0.00,WUHU216HW,2013-01-19 01:27:00,
2013-01-18 18:32:00,37.9,11.8,29.75,SE,135,13.6,17.2,34,0.00,,,0.00,WUHU216HW,2013-01-19 01:32:00,
2013-01-18 18:37:00,37.9,11.8,29.74,SE,135,15.2,27.9,34,0.00,,,0.00,WUHU216HW,2013-01-19 01:37:00,
2013-01-18 18:42:00,37.7,11.6,29.74,SE,135,14.0,27.9,34,0.00,,,0.00,WUHU216HW,2013-01-19 01:42:00,
2013-01-18 18:47:00,37.5,11.5,29.74,West,270,10.5,18.7,34,0.00,,,0.00,WUHU216HW,2013-01-19 01:47:00,
2013-01-18 18:52:00,37.5,11.5,29.74,SW,225,15.8,18.7,34,0.00,,,0.00,WUHU216HW,2013-01-19 01:52:00,
2013-01-18 18:57:00,37.5,11.5,29.74,West,270,13.1,16.7,34,0.00,,,0.00,WUHU216HW,2013-01-19 01:57:00,
2013-01-18 19:02:00,37.5,12.1,29.74,SE,135,18.1,18.1,35,0.00,,,0.00,WUHU216HW,2013-01-19 02:02:00,
2013-01-18 19:07:00,37.5,12.1,29.75,West,270,6.9,18.1,35,0.00,,,0.00,WUHU216HW,2013-01-19 02:07:00,
2013-01-18 19:12:00,37.2,11.8,29.75,ESE,113,14.5,20.1,35,0.00,,,0.00,WUHU216HW,2013-01-19 02:12:00,
2013-01-18 19:18:00,37.0,11.6,29.75,SE,135,8.0,20.1,35,0.00,,,0.00,WUHU216HW,2013-01-19 02:18:00,
2013-01-18 19:23:00,36.6,11.3,29.75,West,270,17.2,17.2,35,0.00,,,0.00,WUHU216HW,2013-01-19 02:23:00,
2013-01-18 19:28:00,36.5,11.8,29.74,SE,135,10.5,17.2,36,0.00,,,0.00,WUHU216HW,2013-01-19 02:28:00,
2013-01-18 19:33:00,36.5,11.8,29.74,SE,135,22.1,22.1,36,0.00,,,0.00,WUHU216HW,2013-01-19 02:33:00,
2013-01-18 19:38:00,36.5,11.8,29.73,WSW,248,20.5,22.1,36,0.00,,,0.00,WUHU216HW,2013-01-19 02:38:00,
2013-01-18 19:43:00,36.6,11.3,29.73,ESE,113,17.8,23.2,35,0.00,,,0.00,WUHU216HW,2013-01-19 02:43:00,
2013-01-18 19:48:00,37.0,11.6,29.73,SE,135,20.5,24.6,35,0.00,,,0.00,WUHU216HW,2013-01-19 02:48:00,
2013-01-18 19:53:00,37.0,11.6,29.73,SW,225,18.5,24.6,35,0.00,,,0.00,WUHU216HW,2013-01-19 02:53:00,
2013-01-18 19:58:00,37.0,11.6,29.73,WSW,248,23.0,23.9,35,0.00,,,0.00,WUHU216HW,2013-01-19 02:58:00,
2013-01-18 20:03:00,37.0,11.6,29.73,SE,135,21.9,28.1,35,0.00,,,0.00,WUHU216HW,2013-01-19 03:03:00,
2013-01-18 20:08:00,37.0,11.6,29.73,SW,225,21.9,28.1,35,0.00,,,0.00,WUHU216HW,2013-01-19 03:08:00,
2013-01-18 20:13:00,37.2,11.8,29.73,SE,135,18.3,25.2,35,0.00,,,0.00,WUHU216HW,2013-01-19 03:13:00,
2013-01-18 20:18:00,37.2,11.8,29.73,SE,135,24.6,28.6,35,0.00,,,0.00,WUHU216HW,2013-01-19 03:18:00,
2013-01-18 20:24:00,37.2,11.8,29.73,West,270,18.5,28.6,35,0.00,,,0.00,WUHU216HW,2013-01-19 03:24:00,
2013-01-18 20:29:00,37.0,11.6,29.74,SE,135,19.6,22.1,35,0.00,,,0.00,WUHU216HW,2013-01-19 03:29:00,
2013-01-18 20:34:00,36.6,11.3,29.74,ESE,113,15.4,21.4,35,0.00,,,0.00,WUHU216HW,2013-01-19 03:34:00,
2013-01-18 20:39:00,36.6,11.3,29.74,East,90,16.3,19.6,35,0.00,,,0.00,WUHU216HW,2013-01-19 03:39:00,
2013-01-18 20:44:00,36.5,11.8,29.74,SW,225,13.6,18.1,36,0.00,,,0.00,WUHU216HW,2013-01-19 03:44:00,
2013-01-18 20:49:00,36.3,11.6,29.74,WSW,248,20.5,20.5,36,0.00,,,0.00,WUHU216HW,2013-01-19 03:49:00,
2013-01-18 20:54:00,36.5,11.8,29.74,West,270,10.9,29.7,36,0.00,,,0.00,WUHU216HW,2013-01-19 03:54:00,
2013-01-18 20:59:00,36.6,11.3,29.74,SE,135,20.1,29.7,35,0.00,,,0.00,WUHU216HW,2013-01-19 03:59:00,
2013-01-18 21:04:00,36.6,11.3,29.74,SE,135,29.0,29.0,35,0.00,,,0.00,WUHU216HW,2013-01-19 04:04:00,
2013-01-18 21:09:00,36.3,11.6,29.74,SW,225,16.3,29.0,36,0.00,,,0.00,WUHU216HW,2013-01-19 04:09:00,
2013-01-18 21:14:00,36.1,11.5,29.74,SE,135,22.1,22.1,36,0.00,,,0.00,WUHU216HW,2013-01-19 04:14:00,
2013-01-18 21:19:00,35.7,11.2,29.75,ESE,113,13.8,22.1,36,0.00,,,0.00,WUHU216HW,2013-01-19 04:19:00,
2013-01-18 21:24:00,35.6,11.0,29.75,SE,135,18.3,22.1,36,0.00,,,0.00,WUHU216HW,2013-01-19 04:24:00,
2013-01-18 21:29:00,35.4,11.5,29.75,SE,135,17.2,18.3,37,0.00,,,0.00,WUHU216HW,2013-01-19 04:29:00,
2013-01-18 21:34:00,35.4,11.5,29.75,SE,135,21.2,21.2,37,0.00,,,0.00,WUHU216HW,2013-01-19 04:34:00,
2013-01-18 21:40:00,35.4,11.5,29.75,SE,135,15.6,21.2,37,0.00,,,0.00,WUHU216HW,2013-01-19 04:40:00,
2013-01-18 21:45:00,35.4,11.5,29.75,SE,135,20.5,21.2,37,0.00,,,0.00,WUHU216HW,2013-01-19 04:45:00,
2013-01-18 21:50:00,35.4,10.8,29.75,SE,135,18.5,20.5,36,0.00,,,0.00,WUHU216HW,2013-01-19 04:50:00,
2013-01-18 21:55:00,35.7,11.2,29.75,SE,135,17.4,19.4,36,0.00,,,0.00,WUHU216HW,2013-01-19 04:55:00,
2013-01-18 22:00:00,36.1,11.3,29.75,SW,225,19.6,23.4,36,0.00,,,0.00,WUHU216HW,2013-01-19 05:00:00,
2013-01-18 22:03:00,36.1,11.5,29.74,SW,225,25.5,25.5,36,0.00,,,0.00,WUHU216HW,2013-01-19 05:03:00,
2013-01-18 22:06:00,36.3,11.6,29.74,SW,225,15.2,25.5,36,0.00,,,0.00,WUHU216HW,2013-01-19 05:06:00,
2013-01-18 22:11:00,36.3,11.0,29.75,SE,135,17.6,25.5,35,0.00,,,0.00,WUHU216HW,2013-01-19 05:11:00,
2013-01-18 22:16:00,36.3,11.0,29.75,SE,135,18.7,29.9,35,0.00,,,0.00,WUHU216HW,2013-01-19 05:16:00,
2013-01-18 22:21:00,36.5,11.2,29.75,WSW,248,16.3,29.9,35,0.00,,,0.00,WUHU216HW,2013-01-19 05:21:00,
2013-01-18 22:26:00,36.5,11.2,29.75,SE,135,18.1,27.0,35,0.00,,,0.00,WUHU216HW,2013-01-19 05:26:00,
2013-01-18 22:31:00,36.5,11.2,29.75,SE,135,18.1,19.4,35,0.00,,,0.00,WUHU216HW,2013-01-19 05:31:00,
2013-01-18 22:36:00,36.5,11.2,29.75,WSW,248,19.0,19.4,35,0.00,,,0.00,WUHU216HW,2013-01-19 05:36:00,
2013-01-18 22:41:00,36.5,11.2,29.75,WSW,248,19.2,19.4,35,0.00,,,0.00,WUHU216HW,2013-01-19 05:41:00,
2013-01-18 22:46:00,36.6,11.3,29.75,West,270,8.5,19.6,35,0.00,,,0.00,WUHU216HW,2013-01-19 05:46:00,
2013-01-18 22:51:00,36.6,11.3,29.76,SE,135,8.0,19.6,35,0.00,,,0.00,WUHU216HW,2013-01-19 05:51:00,
2013-01-18 22:57:00,36.6,11.3,29.76,West,270,13.6,13.8,35,0.00,,,0.00,WUHU216HW,2013-01-19 05:57:00,
2013-01-18 23:02:00,36.5,10.5,29.75,SE,135,21.9,21.9,34,0.00,,,0.00,WUHU216HW,2013-01-19 06:02:00,
2013-01-18 23:07:00,36.5,10.5,29.75,WSW,248,21.6,21.9,34,0.00,,,0.00,WUHU216HW,2013-01-19 06:07:00,
2013-01-18 23:12:00,36.3,10.4,29.75,WSW,248,18.7,21.9,34,0.00,,,0.00,WUHU216HW,2013-01-19 06:12:00,
2013-01-18 23:17:00,35.9,10.7,29.75,West,270,10.0,21.6,34,0.00,,,0.00,WUHU216HW,2013-01-19 06:17:00,
2013-01-18 23:22:00,35.7,10.5,29.75,SE,135,16.7,19.6,35,0.00,,,0.00,WUHU216HW,2013-01-19 06:22:00,
2013-01-18 23:27:00,35.7,10.5,29.75,WSW,248,20.8,20.8,35,0.00,,,0.00,WUHU216HW,2013-01-19 06:27:00,
2013-01-18 23:32:00,35.7,9.9,29.76,SE,135,11.1,21.2,34,0.00,,,0.00,WUHU216HW,2013-01-19 06:32:00,
2013-01-18 23:37:00,35.7,9.9,29.77,SE,135,12.9,21.2,34,0.00,,,0.00,WUHU216HW,2013-01-19 06:37:00,
2013-01-18 23:43:00,35.7,9.9,29.77,ESE,113,10.2,18.7,34,0.00,,,0.00,WUHU216HW,2013-01-19 06:43:00,
2013-01-18 23:48:00,35.7,9.9,29.77,SE,135,20.8,20.8,34,0.00,,,0.00,WUHU216HW,2013-01-19 06:48:00,
2013-01-18 23:53:00,35.7,9.9,29.76,ESE,113,9.1,20.8,34,0.00,,,0.00,WUHU216HW,2013-01-19 06:53:00,
2013-01-18 23:58:00,35.7,9.9,29.77,SE,135,19.6,21.6,34,0.00,,,0.00,WUHU216HW,2013-01-19 06:58:00,